Weather in Eureka

United States     40°46′51″N   124°09′21″W
temp.,
°C
wind,
m/s
gust,
m/s
humid.,
%
clouds,
%
prec.,
mm/h
press.,
hPa
HPBL,
m
25 may, wed
wed2523:00+10nne369213 0.0 1017115
02:00+9nne24942 0.0 101768
05:00+9nne23935 0.0 101643
08:00+11n46865 0.0 1015140
11:00+12n698483 0.0 1015233
14:00+12n478542 0.0 1014222
17:00+12n489084 0.1 1014254
20:00+11n359493 0.0 1012141
26 may, thu
thu2623:00+10ene1195100 0.1 101347
02:00+10ene1195100 0.0 101211
05:00+10nw1195100 0.0 101113
08:00+11wsw2291100 0.0 101256
11:00+12nne2287100 0.0 1014114
14:00+13n3380100 0.0 1014133
17:00+14ne337799 0.0 101396
20:00+11nne239212 0.0 101579
27 may, fri
fri2723:00+10sse0192100 0.0 101610
02:00+10ene2290100 0.0 101612
05:00+11nne1185100 0.0 101610
08:00+12n1181100 0.0 101646
11:00+12nnw1283100 0.0 101777
14:00+14nw2280100 0.0 1017292
17:00+13wsw2387100 0.0 1016190
20:00+14ssw239399 0.0 1015109
28 may, sat
sat2823:00+12ssw3698100 0.3 101591
02:00+11ssw3499100 2.2 101388
05:00+12s4797100 2.3 101198
08:00+12s51195100 3.4 1010334
11:00+11nnw498999 5.6 1014324
14:00+11nw5991100 0.3 1016393
17:00+11nnw5988100 0.4 1017430
20:00+10nnw489217 0.4 1018286
29 may, sun
sun2923:00+10n6109060 1.1 1019385
02:00+9n47875 0.5 1018206
05:00+9nne2389100 0.8 101866
08:00+9nnw369196 0.4 1019347
11:00+11nnw588785 1.2 1019506
14:00+11n6985100 0.8 1019584
17:00+10n5883100 1.1 1019567
20:00+9n4890100 0.1 1019493